Tracking 28790 objects as of 19-Apr-2024
HD Live streaming from Space Station
objects crossing your sky now

CZ-6A DEB

Track CZ-6A DEB now!
10-day predictions


NORAD ID: 54626
Int'l Code: 2022-151PC
Perigee: 678.8 km
Apogee: 835.9 km
Inclination: 98.7 °
Period: 99.8 minutes
Semi major axis: 7128 km
RCS: Unknown
Launch date: November 11, 2022
Source: People's Republic of China (PRC)
Launch site: Taiyaun Space Center, China (TSC)

Note: This is SATELLITE DEBRIS
Your satellite tracking list
Your tracking list is empty




NASA's NSSDC Master Catalog

Two Line Element Set (TLE):
1 54626U 22151PC  24109.29414651  .00014824  00000-0  41627-2 0  9993
2 54626  98.6712 129.5355 0110215 193.5280 166.2948 14.42503577 73921
Source of the keplerian elements: AFSPC